HLKF

Details ICAO HLKF (AKF)
Name KUFRA
Region Libya
Timezone Africa/Tripoli (UTC+2.0)
Plans Departing 6
Arriving 26
Stats Elevation 1,367 ft / 417 m (AMSL)
Location 24.178815° 23.313987°
Runways 2
Magnetic Variation 3.343° E
Sunrise 2017-11-20 04:46:56 UTC / 2017-11-20 06:46:56 Local
Sunset 2017-11-20 15:40:44 UTC / 2017-11-20 17:40:44 Local
Advertisement - Login to hide

Runways

ID Width Length Bearing (true) Bearing (mag) Surface Threshold Offset Overrun Length
02L 100 ft / 30 m 12,020 ft / 3,664 m 15.06° 11.72° Asphalt 0 ft / 0 m 0 ft / 0 m
02R 148 ft / 45 m 12,017 ft / 3,663 m 15.10° 11.76° Asphalt 0 ft / 0 m 837 ft / 255 m
20L 148 ft / 45 m 12,017 ft / 3,663 m 195.10° 191.76° Asphalt 0 ft / 0 m 837 ft / 255 m
20R 100 ft / 30 m 12,020 ft / 3,664 m 195.06° 191.72° Asphalt 0 ft / 0 m 0 ft / 0 m

Map

Weather


0- 5 10 15 20 25 30 35+ Temperature / ° C

Clouds and Precipitation
Forecast for 2017-11-20 18:00 UTC. Updated 2 hours ago

Ground ~20,000 ft ~40,000 ft Winds

METAR

Not found

TAF

TAF HLKF 201100Z 2012/2112 36010KT CAVOK BECMG 2100/2102 VRB02KT BECMG 2110/2112 36010KT

Frequencies

Tower 121.90 MHz TWR
Warning: Do not use this data for real-world aviation or navigation. No guarantee of current accuracy is given.